Home > Weather > Daşoguz > Past weeks

Flag for Turkmenistan Weather for the Past 2 Weeks in Daşoguz, Turkmenistan

Now
19 °F

Clear.


Feels Like: 9 °F
Forecast: 20 / 38 °F
Wind: 8 mph from Northeast

Location: Urgench

Current Time: Feb 11, 2016 at 7:44:41 AM

Latest Report: Feb 11, 2016 at 6:30 AM


Visibility: 10 mi

Pressure: 30.54 "Hg

Humidity: 73%

Dew point: 12 °F

Location of DaşoguzLocation

Historic Weather in Daşoguz — Graph

°F

Daşoguz Temperature Yesterday

Maximum temperature yesterday: 36 °F (at 3:00 PM)
Minimum temperature yesterday: 21 °F (at 5:00 AM)
Average temperature yesterday: 28 °F

High & Low Weather Summary for the Past Weeks

 TemperatureHumidityPressure
High57 °F (Feb 6, 2:30 PM)100% (Feb 1, 4:30 AM)30.63 "Hg (Feb 1, 4:30 AM)
Low19 °F (Jan 28, 8:30 AM)35% (Feb 9, 4:30 PM)29.77 "Hg (Feb 7, 3:00 AM)
Average34 °F70%30.28 "Hg
* Reported Jan 27 4:30 PM — Feb 11 5:00 AM, Daşoguz, Weather by CustomWeather, © 2016

Note: Actual official high and low records may vary slightly from our data, if they occured in-between our weather recording intervals... More about our weather records

Advertising

Daşoguz Weather History for the Previous 24 Hours

 ConditionsComfort  
Time TempWeatherWind HumidityBarometerVisibility
5:00 AM
Thu, Feb 11
21 °FClear.8 mph68%30.57 "Hg10 mi
4:30 AM21 °FClear.8 mph68%30.57 "Hg10 mi
4:00 AM21 °FClear.8 mph68%30.57 "Hg10 mi
3:30 AM21 °FClear.7 mph68%30.57 "Hg10 mi
2:00 AM23 °FClear.6 mph63%30.57 "Hg10 mi
12:30 AM25 °FClear.7 mph63%30.60 "Hg10 mi
12:00 AM25 °FClear.8 mph63%30.60 "Hg10 mi
11:30 PM
Wed, Feb 10
25 °FClear.6 mph63%30.60 "Hg10 mi
11:00 PM25 °FClear.6 mph69%30.63 "Hg10 mi
10:30 PM25 °FClear.5 mph69%30.63 "Hg10 mi
10:00 PM25 °FClear.6 mph69%30.63 "Hg10 mi
9:30 PM27 °FClear.5 mph64%30.63 "Hg4 mi
9:00 PM27 °FClear.5 mph64%30.63 "Hg4 mi
8:30 PM28 °FClear.6 mph59%30.63 "Hg5 mi
8:00 PM28 °FClear.5 mph59%30.63 "Hg5 mi
7:30 PM28 °FClear.6 mph59%30.63 "Hg5 mi
7:00 PM30 °FSunny.6 mph55%30.63 "Hg10 mi
6:30 PM32 °FSunny.7 mph47%30.63 "Hg10 mi
6:00 PM34 °FSunny.8 mph44%30.60 "Hg10 mi
5:30 PM36 °FSunny.12 mph41%30.60 "Hg10 mi
5:00 PM36 °FSunny.9 mph41%30.60 "Hg10 mi
4:30 PM36 °FSunny.12 mph41%30.60 "Hg10 mi
4:00 PM36 °FSunny.12 mph41%30.57 "Hg10 mi
3:30 PM36 °FSunny.9 mph41%30.57 "Hg10 mi
3:00 PM36 °FSunny.10 mph44%30.57 "Hg10 mi
2:30 PM34 °FSunny.9 mph44%30.57 "Hg10 mi
2:00 PM34 °FSunny.9 mph48%30.57 "Hg10 mi
1:30 PM34 °FSunny.10 mph48%30.60 "Hg10 mi
1:00 PM32 °FSunny.10 mph51%30.60 "Hg10 mi
12:30 PM32 °FSunny.8 mph55%30.60 "Hg10 mi
12:00 PM30 °FSunny.7 mph59%30.60 "Hg10 mi
11:30 AM30 °FSunny.6 mph64%30.60 "Hg10 mi
11:00 AM28 °FSunny.7 mph69%30.60 "Hg10 mi
10:30 AM25 °FSunny.8 mph80%30.60 "Hg10 mi
10:00 AM25 °FSunny.8 mph80%30.60 "Hg10 mi
9:30 AM25 °FSunny.7 mph80%30.60 "Hg10 mi
9:00 AM23 °FSunny.6 mph80%30.60 "Hg10 mi
8:30 AM21 °FClear.6 mph80%30.60 "Hg10 mi
7:30 AM21 °FClear.3 mph80%30.57 "Hg10 mi
7:00 AM21 °FClear.3 mph80%30.54 "Hg10 mi
Weather by CustomWeather, © 2016

See weather overviewHow to use our weather pages